UPSAT

Last updated on Thu Apr 05 2018 00:15:04 GMT+0000 (Coordinated Universal Time)

1 42716U 98067LX 18094.80346316 .00028768 00000-0 23725-3 0 9996 2 42716 51.6365 6.9075 0001217 7.2691 352.8324 15.70101029 50223

Satellite not in orbit